Regional Weather Roundup
Issued by NWS Cleveland, OH

Home | Current Version | Previous Version | Graphics & Text | Print | Product List | Glossary On
Versions: 1 2 3 4 5 6 7 8 9 10 11 12 13 14 15 16 17 18 19 20 21 22 23 24 25 26 27 28 29 30 31 32 33 34 35 36 37 38 39 40 41 42 43 44 45 46 47 48 49 50
717
ASUS41 KCLE 200012
RWRCLE
OHIO REGIONAL WEATHER ROUNDUP
NATIONAL WEATHER SERVICE WILMINGTON, OH
700 PM EST SUN FEB 19 2017

NOTE: "FAIR" INDICATES FEW OR NO CLOUDS BELOW 12,000 FEET WITH NO
SIGNIFICANT WEATHER AND/OR OBSTRUCTIONS TO VISIBILITY.

OHZ001>008-015>018-024>027-034-035-043-044-200100-
   NORTHWEST OHIO

CITY           SKY/WX    TMP DP  RH WIND       PRES   REMARKS
DEFIANCE       FAIR      53  33  46 CALM      30.09R
FINDLAY        FAIR      53  35  50 SW5       30.08R
TOLEDO EXPRESS FAIR      54  31  41 W5        30.07R
TOLEDO EXEC    FAIR      55  32  41 CALM      30.08R
LIMA           FAIR      56  34  43 W7        30.09R
$$

OHZ009>014-019>023-028>033-038-089-200100-
   NORTHEAST OHIO

CITY           SKY/WX    TMP DP  RH WIND       PRES   REMARKS
CLE-HOPKINS    FAIR      55  34  45 CALM      30.10R
CLE-LAKEFRONT  FAIR      51  37  58 S5        30.06S
CUY CO. ARPT   PTCLDY    50  37  62 S5        30.08R
LORAIN-ELYRIA  FAIR      51  34  52 CALM      30.08R
ASHTABULA      FAIR      46  34  62 CALM      30.09R
AKRON-CANTON   FAIR      55  33  43 CALM      30.08R
WOOSTER        FAIR      47  35  63 W5        30.09R
MANSFIELD      FAIR      55  35  47 CALM      30.09R
YOUNGSTOWN     FAIR      50  29  44 NW6       30.09R
$$

OHZ042-051>053-060>062-070>072-077>081-200100-
  SOUTHWEST OHIO

CITY           SKY/WX    TMP DP  RH WIND       PRES   REMARKS
CINC-COVINGTON FAIR      50  46  86 S7        30.13R
CINC-LUNKEN    FAIR      49  45  86 S5        30.14R
HAMILTON       FAIR      47  42  83 CALM      30.13S
DAYTON         FAIR      52  44  74 S8        30.12R
WRIGHT-PAT AFB FAIR      48  45  89 S6        30.11S
DAYTON GENERAL FAIR      52  45  77 S3        30.12R
WILMINGTON     FAIR      48  44  86 S8        30.13R
$$

OHZ036-037-039>041-045>050-054>059-063>069-073>076-082>088-200100-
  CENTRAL AND SOUTHEAST OHIO

CITY           SKY/WX    TMP DP  RH WIND       PRES   REMARKS
COLUMBUS       FAIR      52  44  74 S6        30.11S
OSU AIRPORT    FAIR      52  46  80 S8        30.10S
BOLTON FIELD   CLEAR     46  43  87 SW8       30.11F
RICKENBACK AFB FAIR      48  44  87 S6        30.11S
NEWARK         FAIR      50  43  77 S6        30.11R
MARION         FAIR      54  35  48 W3        30.09R
LANCASTER      FAIR      45  42  89 S3        30.13R
ZANESVILLE     FAIR      50  43  77 SW5       30.12R
NEW PHILLY     FAIR      56  43  61 SW6       30.09R
$$




USA.gov is the U.S. government's official web portal to all federal, state and local government web resources and services.